ARIANE 2 DEB, 33568

Orbit data source: Space-Track

ARIANE 2 DEB, 33568 is space debris in HEO originally from a launch on Fri, 27 Jan 1989 UTC launched from the French Guiana (FRGUI). Debris objects in space refer to the collection of defunct objects orbiting the Earth. Examples of debris include non-operational satellites, rocket bodies, and fragments generated from explosions, collisions, or faulty payload assembly.

Loading next visibility...
Identifier
33568, 1989-006BL
Orbit
HEO
Country
Flag of FRFR
Related business
Manufacturer
EADS/LV
Mission
Spacecraft
Bus & Motor
Unknown
Mass
Unknown
Launch date (UTC)
1989-01-27 (37 years ago)
Launch vehicle
Unknown
Launch site
French Guiana (FRGUI)
Object type
Payload
Rocket body
Debris
Shape & HBR
Unknown shape, 1.1 m
Radar Cross Section
Medium (>0.1 m² and <1 m²)

Expand to show TLE details & history
Last TLE update: 2 weeks ago

TLE from 2 weeks ago
0 ARIANE 2 DEB
1 33568U 89006BL  25278.78367276  .00000293  00000-0  15697-2 0  9992
2 33568   8.2644  69.9092 7182116  88.6695 345.2732  2.30185941110364
Epoch: 2025-10-05T18:48Z
TLE epoch observation values (Epoch: 2025-10-05T18:48:29.326Z)
Latitude
-0.00001°
Longitude
133.26329°
Altitude
5,127.132 km
Speed
7.269 km/s
True Right ascension
04h 40m 19s
True Declination
0° 00' 00"
Sunlit
Object was in daylight at epoch
Visualization orbit readout
Latitude
Unknown
Longitude
Unknown
Altitude
Unknown
Speed
Unknown
Apparent Right ascension
Unknown
Apparent Declination
Unknown
Sunlit
N/A
Visualization observer readout
Local Sidereal Time
18:31:21
Azimuth
Unknown
Elevation
Unknown
Doppler factor
Unknown
Orbital elements
Apogee altitude
35,262.747 km
Perigee altitude
451.009 km
Semi-major axis
24,235.015 km
Eccentricity
0.71821
Inclination
8.2644°
RAAN
69.9092°
Arg. of periapsis
88.6695°
True anomaly
272.23561°
Mean anomaly
345.2732°
Eccentric anomaly
317.44122°
Mean motion
0.57528 °/min
Orbital period
625.78 mins
BSTAR
0.0015697
Loading maneuver chart data...
Computing Atmospheric mass density...
Loading historical data...
Loading historical data...
Loading historical data...
Loading historical data...
Loading historical data...
Loading historical data...
Loading historical data...

Documentation

Showing up to 5 results
|